CONNECTA IOT-3

导读

CONNECTA IOT-3是土耳其(TR)于2024年8月16日发射的物联网卫星,隶属于卫星物联网星座。它依托低轨卫星通信能力,突破地面网络覆盖限制,可为全球偏远地区、海洋、沙漠等区域提供物联网连接服务,能支持农业监测、物流资产追踪、油气管道监控等多场景应用,助力实现万物互联的全球覆盖,推动卫星物联网产业发展。

基本信息
目录编号:
60475
目录名称:
CONNECTA IOT-3
国际标识:
2024-149H
轨道中心:
EARTH
卫星名称:
CONNECTA IOT-3
卫星全名:
CONNECTA IOT-3
卫星状态:
在轨 (已飞行749 天)
发射日期:
2024-08-16 UTC
国别 :
土耳其 (TR)
星等 :
--
轨道信息
数据来源 国际轨道数据
星历时间: 2026-09-03T23:42:10+0800
1天前
查看轨道信息
半长轴: 6871.69km
偏心率: 0.0003017
轨道倾角: 97.368°
近地点辐角 23.095°
升交点赤经 321.354°
平近点角 337.042°
近地点: 491.479km
远地点: 495.627km
周期: 94.483分钟
每日圈数: 15.24079
详细信息
使用方式:
暂无
2D轨道图
3D轨道图
轨道高度分析图
轨道倾角分析图
轨道综合分析图
查看轨道综合分析图
交会数据列表
事件ID 空间交会对象 最接近时刻(TCA) 交会距离 交会风险概率(CRP) 交会风险指数(CRI) 操作
CDM_260905-072906-047506-266522
JAY-D2 (62665)
2026-09-05T
07:29:12+0000
1.863 km
极远距离
5.501709E-7 极低风险 0.3
CDM_260905-165704-723106-047521
2026-09-05T
16:57:00+0000
2.518 km
极远距离
3.72449E-7 极低风险 0.26